Simultaneous Nadir Overpasses (SNOs) Predictions

Prediction of SNOs between METOP-B and TERRA Satellite Orbit:

Table of predicted SNOs for the next 14.0 days since TLE Epoch: 6/8/2017
Index Date (METOP-B) Time (METOP-B) Lat,Lon (METOP-B) SZA (METOP-B ) Date (TERRA) Time (TERRA) Lat,Lon (TERRA) SZA (TERRA ) Distance(km) Time Diff (sec)
1 06/09/2017 20:10:24 -81.33, 105.17 118.66 06/09/2017 20:10:29 -81.33, 105.26 118.65 1.65 5
2 06/09/2017 21:01:04 81.34, -87.17 61.38 06/09/2017 20:59:55 81.34, -86.97 61.37 3.31 69
3 06/12/2017 14:54:05 81.33, 3.94 61.10 06/12/2017 14:55:18 81.33, 3.92 61.13 0.64 73
4 06/12/2017 15:44:44 -81.34, 171.95 118.82 06/12/2017 15:44:44 -81.34, 171.87 118.83 1.32 0
5 06/12/2017 16:35:17 81.36, -17.62 61.56 06/12/2017 16:34:03 81.48, -17.66 61.59 12.72 74
6 06/15/2017 10:28:25 81.33, 70.31 60.94 06/15/2017 10:29:32 81.33, 70.49 60.99 2.99 67
7 06/15/2017 11:19:05 -81.33,-122.07 119.03 06/15/2017 11:18:59 -81.33,-121.92 119.02 2.58 6
8 06/18/2017 06:02:45 81.33, 137.05 60.88 06/18/2017 06:03:47 81.34, 137.04 60.91 0.55 62
9 06/18/2017 06:53:25 -81.34, -55.32 119.09 06/18/2017 06:53:14 -81.34, -55.35 119.10 0.45 11
10 06/21/2017 01:37:06 81.33,-156.62 60.82 06/21/2017 01:38:02 81.34,-156.44 60.88 3.24 56




NCC Satellite Simultaneous Nadir Overpasses (SNOs) Prediction Service
